• In Deutschland
  • Länderverzeichnis
  • Für 7 Tage
  • Wassertemperatur
  • Satellitenkarten
  • Wetterkarte
  • Widgets
  • user-avatar
    Anmelden

    Stündliche Wetter Georgsmarienhütte

    Heute, 18 September, Dienstag

    Zeit Temperatur Niederschläge Wind Luftdruck Luftfeuchtigkeit
    00:00 +17°C° 0 mm 3 m/S 750 mmHg 62%
    01:00 +18°C° 0 mm 3 m/S 749 mmHg 61%
    02:00 +17°C° 0 mm 3 m/S 749 mmHg 61%
    03:00 +17°C° 0 mm 3 m/S 748 mmHg 61%
    04:00 +17°C° 0 mm 3 m/S 748 mmHg 61%
    05:00 +17°C° 0 mm 3 m/S 748 mmHg 61%
    06:00 +17°C° 0 mm 3 m/S 748 mmHg 61%
    07:00 +17°C° 0 mm 4 m/S 747 mmHg 57%
    08:00 +20°C° 0 mm 4 m/S 747 mmHg 52%
    09:00 +22°C° 0 mm 4 m/S 747 mmHg 48%
    10:00 +26°C° 0 mm 5 m/S 747 mmHg 44%
    11:00 +27°C° 0 mm 5 m/S 747 mmHg 41%
    12:00 +29°C° 0 mm 6 m/S 747 mmHg 39%
    13:00 +30°C° 0 mm 7 m/S 747 mmHg 37%
    14:00 +30°C° 0 mm 7 m/S 747 mmHg 38%
    15:00 +30°C° 0 mm 6 m/S 747 mmHg 39%
    16:00 +29°C° 0 mm 6 m/S 747 mmHg 41%
    17:00 +27°C° 0 mm 5 m/S 748 mmHg 48%
    18:00 +25°C° 0 mm 4 m/S 748 mmHg 54%
    19:00 +22°C° 0 mm 4 m/S 748 mmHg 61%
    20:00 +20°C° 0 mm 3 m/S 749 mmHg 67%
    21:00 +19°C° 0 mm 3 m/S 749 mmHg 73%
    22:00 +18°C° 0 mm 2 m/S 750 mmHg 79%
    23:00 +17°C° 0 mm 2 m/S 750 mmHg 82%

    Morgen, 19 September, Mittwoch

    Zeit Temperatur Niederschläge Wind Luftdruck Luftfeuchtigkeit
    00:00 +16°C° 0 mm 2 m/S 750 mmHg 85%
    01:00 +16°C° 0 mm 2 m/S 750 mmHg 88%
    02:00 +16°C° 0 mm 2 m/S 750 mmHg 88%
    03:00 +15°C° 0 mm 2 m/S 750 mmHg 89%
    04:00 +15°C° 0 mm 2 m/S 751 mmHg 89%
    05:00 +15°C° 0 mm 2 m/S 751 mmHg 88%
    06:00 +16°C° 0 mm 2 m/S 751 mmHg 88%
    07:00 +16°C° 0 mm 2 m/S 751 mmHg 87%
    08:00 +18°C° 0 mm 2 m/S 751 mmHg 78%
    09:00 +20°C° 0 mm 3 m/S 751 mmHg 69%
    10:00 +24°C° 0 mm 3 m/S 751 mmHg 61%
    11:00 +25°C° 0 mm 4 m/S 751 mmHg 57%
    12:00 +26°C° 0 mm 5 m/S 751 mmHg 53%
    13:00 +27°C° 0 mm 6 m/S 750 mmHg 49%
    14:00 +28°C° 0 mm 6 m/S 750 mmHg 49%
    15:00 +28°C° 0 mm 6 m/S 750 mmHg 48%
    16:00 +28°C° 0 mm 6 m/S 750 mmHg 47%
    17:00 +26°C° 0 mm 5 m/S 750 mmHg 53%
    18:00 +23°C° 0 mm 4 m/S 750 mmHg 58%
    19:00 +21°C° 0 mm 3 m/S 750 mmHg 64%
    20:00 +20°C° 0 mm 3 m/S 751 mmHg 66%
    21:00 +19°C° 0 mm 3 m/S 751 mmHg 69%
    22:00 +18°C° 0 mm 3 m/S 751 mmHg 71%
    23:00 +18°C° 0 mm 3 m/S 751 mmHg 73%

    übermorgen, 20 September, Donnerstag

    Zeit Temperatur Niederschläge Wind Luftdruck Luftfeuchtigkeit
    00:00 +18°C° 0 mm 3 m/S 751 mmHg 75%
    01:00 +17°C° 0 mm 3 m/S 751 mmHg 77%
    02:00 +17°C° 0 mm 3 m/S 751 mmHg 79%
    03:00 +17°C° 0 mm 3 m/S 751 mmHg 80%
    04:00 +16°C° 0 mm 3 m/S 751 mmHg 82%
    05:00 +16°C° 0 mm 3 m/S 751 mmHg 83%
    06:00 +16°C° 0 mm 3 m/S 751 mmHg 84%
    07:00 +16°C° 0 mm 3 m/S 751 mmHg 85%
    08:00 +18°C° 0 mm 4 m/S 751 mmHg 77%
    09:00 +20°C° 0 mm 5 m/S 751 mmHg 70%
    10:00 +22°C° 0 mm 5 m/S 751 mmHg 62%
    11:00 +23°C° 0 mm 6 m/S 750 mmHg 58%
    12:00 +24°C° 0 mm 6 m/S 750 mmHg 54%
    13:00 +26°C° 0 mm 6 m/S 749 mmHg 50%
    14:00 +26°C° 0 mm 6 m/S 749 mmHg 49%
    15:00 +26°C° 0 mm 6 m/S 749 mmHg 48%
    16:00 +26°C° 0 mm 5 m/S 748 mmHg 47%
    17:00 +25°C° 0 mm 5 m/S 748 mmHg 52%
    18:00 +22°C° 0 mm 4 m/S 747 mmHg 57%
    19:00 +21°C° 0 mm 3 m/S 747 mmHg 61%
    20:00 +21°C° 0 mm 3 m/S 747 mmHg 62%
    21:00 +20°C° 0 mm 4 m/S 746 mmHg 62%
    22:00 +20°C° 0 mm 5 m/S 746 mmHg 62%
    23:00 +20°C° 0 mm 5 m/S 745 mmHg 61%

    21 September, Freitag

    Zeit Temperatur Niederschläge Wind Luftdruck Luftfeuchtigkeit
    00:00 +21°C° 0 mm 5 m/S 744 mmHg 60%
    01:00 +21°C° 0 mm 6 m/S 744 mmHg 58%
    02:00 +21°C° 0 mm 6 m/S 743 mmHg 56%
    03:00 +21°C° 0 mm 6 m/S 743 mmHg 55%
    04:00 +21°C° 0 mm 6 m/S 742 mmHg 53%
    05:00 +21°C° 0 mm 7 m/S 741 mmHg 54%
    06:00 +21°C° 0 mm 7 m/S 741 mmHg 55%
    07:00 +21°C° 0 mm 7 m/S 740 mmHg 56%
    08:00 +18°C° 0.5 mm 7 m/S 741 mmHg 65%
    09:00 +17°C° 0.5 mm 7 m/S 741 mmHg 74%
    10:00 +16°C° 0.5 mm 7 m/S 742 mmHg 83%
    11:00 +16°C° 0.3 mm 7 m/S 742 mmHg 77%
    12:00 +16°C° 0.3 mm 6 m/S 743 mmHg 71%
    13:00 +15°C° 0.3 mm 6 m/S 743 mmHg 66%
    14:00 +15°C° 0.3 mm 6 m/S 744 mmHg 64%
    15:00 +15°C° 0.3 mm 6 m/S 744 mmHg 63%
    16:00 +14°C° 0.3 mm 7 m/S 745 mmHg 61%
    17:00 +13°C° 0.3 mm 6 m/S 745 mmHg 65%
    18:00 +12°C° 0.3 mm 5 m/S 746 mmHg 68%
    19:00 +10°C° 0.3 mm 5 m/S 747 mmHg 72%
    20:00 +9°C° 0 mm 5 m/S 747 mmHg 72%
    21:00 +10°C° 0 mm 4 m/S 748 mmHg 73%
    22:00 +8°C° 0 mm 4 m/S 749 mmHg 74%
    23:00 +8°C° 0 mm 5 m/S 750 mmHg 74%

    22 September, Samstag

    Zeit Temperatur Niederschläge Wind Luftdruck Luftfeuchtigkeit
    00:00 +8°C° 0 mm 5 m/S 750 mmHg 75%
    01:00 +8°C° 0 mm 6 m/S 751 mmHg 75%
    02:00 +8°C° 0 mm 5 m/S 751 mmHg 79%
    03:00 +8°C° 0 mm 5 m/S 752 mmHg 83%
    04:00 +8°C° 0 mm 4 m/S 752 mmHg 86%
    05:00 +8°C° 0 mm 5 m/S 753 mmHg 86%
    06:00 +8°C° 0 mm 5 m/S 753 mmHg 86%
    07:00 +8°C° 0 mm 5 m/S 754 mmHg 85%
    08:00 +10°C° 0 mm 5 m/S 754 mmHg 77%
    09:00 +11°C° 0 mm 6 m/S 754 mmHg 68%
    10:00 +14°C° 0 mm 6 m/S 754 mmHg 59%
    11:00 +15°C° 0.1 mm 7 m/S 754 mmHg 56%
    12:00 +15°C° 0.1 mm 7 m/S 754 mmHg 53%
    13:00 +16°C° 0.1 mm 7 m/S 754 mmHg 49%
    14:00 +15°C° 0.1 mm 7 m/S 754 mmHg 51%
    15:00 +15°C° 0.1 mm 6 m/S 754 mmHg 53%
    16:00 +15°C° 0.1 mm 6 m/S 754 mmHg 54%
    17:00 +13°C° 0 mm 5 m/S 754 mmHg 60%
    18:00 +12°C° 0 mm 3 m/S 754 mmHg 66%
    19:00 +12°C° 0 mm 2 m/S 754 mmHg 71%
    20:00 +10°C° 0 mm 2 m/S 754 mmHg 74%
    21:00 +9°C° 0 mm 2 m/S 754 mmHg 77%
    22:00 +10°C° 0 mm 1 m/S 754 mmHg 80%
    23:00 +9°C° 0.1 mm 2 m/S 754 mmHg 80%

    23 September, Sonntag

    Zeit Temperatur Niederschläge Wind Luftdruck Luftfeuchtigkeit
    00:00 +9°C° 0.1 mm 2 m/S 754 mmHg 79%
    01:00 +10°C° 0.1 mm 2 m/S 754 mmHg 79%
    02:00 +10°C° 0.1 mm 2 m/S 753 mmHg 80%
    03:00 +10°C° 0.1 mm 3 m/S 752 mmHg 82%
    04:00 +10°C° 0.1 mm 3 m/S 752 mmHg 84%
    05:00 +10°C° 0.1 mm 4 m/S 751 mmHg 83%
    06:00 +9°C° 0.1 mm 5 m/S 749 mmHg 81%
    07:00 +10°C° 0.1 mm 6 m/S 748 mmHg 80%
    08:00 +10°C° 0.1 mm 7 m/S 747 mmHg 78%
    09:00 +11°C° 0.1 mm 8 m/S 746 mmHg 76%
    10:00 +11°C° 0.1 mm 8 m/S 745 mmHg 75%
    11:00 +12°C° 1 mm 9 m/S 743 mmHg 77%
    12:00 +12°C° 1 mm 9 m/S 742 mmHg 79%
    13:00 +13°C° 1 mm 10 m/S 740 mmHg 81%
    14:00 +14°C° 0.4 mm 10 m/S 739 mmHg 81%
    15:00 +16°C° 0.4 mm 10 m/S 738 mmHg 81%
    16:00 +17°C° 0.4 mm 10 m/S 736 mmHg 81%
    17:00 +16°C° 0.4 mm 10 m/S 735 mmHg 77%
    18:00 +14°C° 0.4 mm 10 m/S 735 mmHg 73%
    19:00 +13°C° 0.4 mm 10 m/S 734 mmHg 69%
    20:00 +12°C° 0.1 mm 11 m/S 733 mmHg 68%
    21:00 +12°C° 0.1 mm 12 m/S 732 mmHg 68%
    22:00 +10°C° 0.1 mm 13 m/S 731 mmHg 68%
    23:00 +10°C° 0.3 mm 13 m/S 731 mmHg 71%
    Mehr zeigen